TimeMDT,TemperatureF,Dew PointF,Humidity,Sea Level PressureIn,VisibilityMPH,Wind Direction,Wind SpeedMPH,Gust SpeedMPH,PrecipitationIn,Events,Conditions,WindDirDegrees,DateUTC
12:53 AM,33.1,30.0,89,30.07,10.0,ENE,6.9,-,N/A,,Overcast,60,2013-03-28 06:53:00
1:53 AM,33.1,30.0,89,30.06,10.0,Calm,Calm,-,N/A,,Overcast,0,2013-03-28 07:53:00
2:53 AM,33.1,28.9,85,30.07,10.0,NNE,3.5,-,N/A,,Overcast,20,2013-03-28 08:53:00
3:53 AM,32.0,28.9,88,30.07,10.0,NNE,3.5,-,N/A,,Overcast,30,2013-03-28 09:53:00
4:53 AM,32.0,28.9,88,30.06,10.0,Calm,Calm,-,N/A,,Overcast,0,2013-03-28 10:53:00
5:53 AM,32.0,28.0,85,30.07,10.0,NE,4.6,-,N/A,,Overcast,40,2013-03-28 11:53:00
6:53 AM,30.9,27.0,85,30.08,10.0,NE,5.8,-,N/A,,Overcast,40,2013-03-28 12:53:00
7:53 AM,30.9,27.0,85,30.12,10.0,Calm,Calm,-,N/A,,Mostly Cloudy,0,2013-03-28 13:53:00
8:53 AM,34.0,28.0,79,30.13,10.0,NNE,4.6,-,N/A,,Overcast,30,2013-03-28 14:53:00
9:53 AM,37.9,30.0,73,30.14,10.0,Calm,Calm,-,N/A,,Partly Cloudy,0,2013-03-28 15:53:00
10:53 AM,43.0,30.9,62,30.13,10.0,Calm,Calm,-,N/A,,Clear,0,2013-03-28 16:53:00
11:53 AM,48.9,32.0,52,30.11,10.0,Calm,Calm,-,N/A,,Clear,0,2013-03-28 17:53:00
12:53 PM,53.1,30.9,43,30.09,10.0,Calm,Calm,-,N/A,,Clear,0,2013-03-28 18:53:00
1:53 PM,55.9,27.0,33,30.07,10.0,NNE,5.8,-,N/A,,Clear,20,2013-03-28 19:53:00
2:53 PM,57.0,28.0,33,30.05,10.0,ENE,8.1,-,N/A,,Clear,70,2013-03-28 20:53:00
3:53 PM,57.9,26.1,30,30.04,10.0,Variable,6.9,-,N/A,,Clear,0,2013-03-28 21:53:00
4:53 PM,57.0,27.0,32,30.03,10.0,Variable,4.6,-,N/A,,Clear,0,2013-03-28 22:53:00
5:53 PM,55.9,28.0,34,30.04,10.0,ENE,8.1,-,N/A,,Clear,70,2013-03-28 23:53:00
6:53 PM,53.1,30.9,43,30.05,10.0,East,8.1,-,N/A,,Clear,90,2013-03-29 00:53:00
7:53 PM,50.0,26.1,39,30.06,10.0,East,5.8,-,N/A,,Clear,90,2013-03-29 01:53:00
8:53 PM,50.0,23.0,35,30.06,10.0,ESE,4.6,-,N/A,,Clear,110,2013-03-29 02:53:00
9:53 PM,42.1,28.0,58,30.08,10.0,WNW,5.8,-,N/A,,Clear,290,2013-03-29 03:53:00
10:53 PM,37.9,30.9,76,30.09,10.0,Calm,Calm,-,N/A,,Mostly Cloudy,0,2013-03-29 04:53:00
11:53 PM,36.0,28.9,76,30.09,10.0,North,4.6,-,N/A,,Clear,360,2013-03-29 05:53:00